EW9065 Weather Reports


Display with metric or nautical units.
time (UTC)temp
F
wind
direction
speed
MPH
gust
MPH
rain 1hr
in
rain 24hr
in
rain mn
in
humidity
%
barometer
mb
20211207083043 35 136 0.0 0.0 0.00 0.17 0.01 69 1004.7
20211207081533 35 183 0.0 0.0 0.00 0.17 0.01 67 1004.5
20211207080132 36 227 1.0 10.0 0.00 0.17 0.01 64 1004.1
20211207074552 36 196 0.0 0.0 0.00 0.17 0.01 64 1004.0
20211207073023 37 224 0.0 5.0 0.00 0.17 0.01 62 1003.5
20211207071526 37 289 1.0 9.0 0.01 0.17 0.01 62 1003.0
20211207070018 37 261 0.0 1.0 0.01 0.17 0.01 64 1002.6
20211207064536 38 242 0.0 10.0 0.01 0.17 0.01 62 1002.0
20211207063021 38 49 0.0 6.0 0.01 0.17 0.01 60 1001.7
20211207061509 39 263 1.0 9.0 0.00 0.16 0.00 60 1001.5
20211207060005 40 20 0.0 10.0 0.00 0.16 0.00 58 1001.1
20211207054728 40 281 1.0 13.0 0.00 0.16 0.00 61 1000.0
20211207053153 40 48 0.0 0.0 0.00 0.16 0.00 69 1000.1
20211207051703 41 203 0.0 5.0 0.00 0.16 0.00 72 1000.3
20211207050106 41 192 0.0 10.0 0.00 0.16 0.00 73 999.6
20211207044603 41 169 0.0 9.0 0.00 0.16 0.10 79 999.7
20211207043101 42 290 0.0 5.0 0.00 0.16 0.10 82 999.1
20211207041648 42 211 0.0 5.0 0.01 0.16 0.10 85 998.6
20211207040050 43 277 0.0 0.0 0.01 0.16 0.10 84 998.2
20211207034602 43 246 0.0 7.0 0.02 0.16 0.10 82 998.1
20211207033112 44 276 0.0 12.0 0.05 0.16 0.10 84 997.3
20211207031609 46 148 0.0 0.0 0.06 0.15 0.09 87 997.3
20211207030028 49 61 2.0 12.0 0.06 0.15 0.09 83 996.7
20211207024525 53 306 0.0 11.0 0.06 0.14 0.08 90 995.2
20211207023019 55 53 0.0 0.0 0.05 0.11 0.05 93 993.4
20211207021516 55 236 0.0 0.0 0.03 0.09 0.03 92 993.3
20211207020016 55 217 0.0 0.0 0.03 0.09 0.03 92 993.3
20211207014533 56 227 0.0 0.0 0.01 0.07 0.01 91 993.6
20211207013009 56 235 0.0 0.0 0.00 0.06 0.00 90 993.6
20211207011523 56 213 0.0 4.0 0.00 0.06 0.00 90 993.7
20211207010012 56 251 0.0 0.0 0.00 0.06 0.00 89 994.0
20211207004502 56 171 0.0 0.0 0.00 0.06 0.00 88 994.4
20211207003153 56 249 0.0 0.0 0.00 0.06 0.00 88 994.8
20211206230059 54 209 0.0 0.0 0.00 0.06 0.06 88 995.7
20211206224547 54 140 0.0 0.0 0.00 0.06 0.06 88 996.3
20211206223134 54 292 0.0 0.0 0.00 0.06 0.06 88 996.3
20211206221613 55 218 0.0 0.0 0.00 0.06 0.06 87 996.4
20211206220116 55 222 0.0 0.0 0.00 0.06 0.06 87 996.9
20211206214543 55 250 0.0 1.0 0.00 0.06 0.06 87 997.0
20211206213137 55 311 0.0 10.0 0.00 0.06 0.06 86 997.2
20211206211619 55 255 0.0 0.0 0.00 0.06 0.06 87 997.8
20211206210046 55 310 0.0 10.0 0.00 0.06 0.06 88 998.1
20211206204614 55 169 0.0 4.0 0.00 0.06 0.06 90 998.6
20211206203114 55 205 0.0 0.0 0.00 0.06 0.06 91 999.0
20211206201521 54 236 0.0 0.0 0.00 0.06 0.06 93 999.2
20211206200112 53 277 0.0 0.0 0.00 0.06 0.06 94 999.4
20211206194519 53 56 0.0 2.0 0.00 0.06 0.06 94 999.7
20211206193016 52 240 0.0 0.0 0.00 0.06 0.06 94 999.7
20211206191506 52 113 0.0 0.0 0.00 0.06 0.06 94 999.9
20211206190020 51 198 0.0 0.0 0.00 0.06 0.06 94 1000.0
20211206184703 51 113 0.0 0.0 0.00 0.06 0.06 94 1000.5
20211206183149 50 217 0.0 0.0 0.00 0.06 0.06 94 1001.5
20211206181628 50 237 0.0 0.0 0.00 0.06 0.06 94 1002.0
20211206180110 51 326 0.0 0.0 0.00 0.06 0.06 94 1002.2
20211206180024 51 244 0.0 0.0 0.00 0.06 0.06 94 1002.2
20211206174620 50 258 0.0 0.0 0.00 0.06 0.06 94 1002.4
20211206173055 50 355 0.0 0.0 0.00 0.06 0.06 94 1002.2
20211206171557 49 90 0.0 0.0 0.00 0.06 0.06 94 1002.7
20211206170037 48 90 0.0 0.0 0.00 0.06 0.06 94 1003.2
20211206164549 48 90 0.0 0.0 0.00 0.06 0.06 94 1003.4
20211206163118 46 85 0.0 0.0 0.00 0.06 0.06 94 1003.7
20211206161545 45 85 0.0 0.0 0.00 0.06 0.06 94 1004.1
20211206160121 45 84 0.0 0.0 0.00 0.06 0.06 94 1004.9
20211206154519 45 84 0.0 0.0 0.00 0.06 0.06 94 1005.7
20211206153034 45 84 0.0 0.0 0.00 0.06 0.06 94 1006.3
20211206151521 44 84 0.0 0.0 0.00 0.06 0.06 94 1006.6
20211206150008 43 84 0.0 0.0 0.00 0.06 0.06 94 1006.8
20211206144505 42 84 0.0 0.0 0.00 0.06 0.06 94 1007.4
20211206143015 42 84 0.0 0.0 0.00 0.06 0.06 94 1007.8
20211206141752 42 83 0.0 0.0 0.00 0.06 0.06 94 1008.6
20211206140229 41 83 0.0 0.0 0.00 0.06 0.06 94 1009.1
20211206134634 41 83 0.0 0.0 0.00 0.06 0.06 94 1009.2
20211206133208 41 83 0.0 0.0 0.01 0.06 0.06 94 1009.6
20211206131606 40 83 0.0 0.0 0.03 0.06 0.06 93 1010.0
20211206130055 40 83 0.0 0.0 0.04 0.06 0.06 94 1010.5
20211206124556 40 83 0.0 0.0 0.04 0.06 0.06 93 1010.8
20211206123130 40 83 0.0 0.0 0.03 0.05 0.05 93 1011.2
20211206121551 40 83 0.0 0.0 0.01 0.03 0.03 93 1011.1
20211206120038 40 83 0.0 0.0 0.02 0.02 0.02 93 1011.8
20211206114608 40 83 0.0 0.0 0.02 0.02 0.02 93 1012.4
20211206113122 39 83 0.0 0.0 0.02 0.02 0.02 92 1013.0
20211206111539 39 83 0.0 0.0 0.02 0.02 0.02 91 1013.3
20211206110046 39 83 0.0 0.0 0.00 0.00 0.00 89 1014.1
20211206104552 39 83 0.0 0.0 0.00 0.00 0.00 88 1014.0
20211206103035 39 83 0.0 0.0 0.00 0.00 0.00 88 1014.3
20211206101601 39 83 0.0 0.0 0.00 0.00 0.00 88 1014.7
20211206100029 39 83 0.0 0.0 0.00 0.00 0.00 88 1014.7
20211206094548 38 83 0.0 0.0 0.00 0.00 0.00 88 1015.1
20211206093020 38 83 0.0 0.0 0.00 0.00 0.00 88 1015.6
20211206091522 38 83 0.0 0.0 0.00 0.00 0.00 88 1015.6
20211206090015 37 83 0.0 0.0 0.00 0.00 0.00 88 1016.8
20211206084516 36 81 0.0 0.0 0.00 0.00 0.00 89 1016.9